Phoenix, AZ

12:27 PM MST on February 25, 2017 (GMT -0700)
Phoenix-Deer Valley Municipal

Weather History for KDVT - August, 2014

Change the Weather History Date:

Monday, August 25, 2014

  Actual Average Record
Temperature  
Mean Temperature 88 °F -  
Max Temperature 96 °F 99 °F 108 °F (2001)
Min Temperature 80 °F 79 °F 71 °F (2008)
Cooling Degree Days 23    
Growing Degree Days 38 (Base 50)    
Moisture  
Dew Point 60 °F    
Average Humidity 40    
Maximum Humidity 56    
Minimum Humidity 24    
Precipitation  
Precipitation 0.00 in - - ()
Sea Level Pressure  
Sea Level Pressure 29.81 in    
Wind  
Wind Speed 5 mph (SW)    
Max Wind Speed 16 mph    
Max Gust Speed 26 mph    
Visibility 10 miles    
Events      
Averages and records for this station are not official NWS values.
T = Trace of Precipitation, MM = Missing Value Source: NWS Daily Summary

Daily Weather History Graph

Daily Weather History Graph

Search for Another Location

Airport or City:

Trip Planner

Search our weather history database for the weather conditions in past years. The results will help you decide how hot, cold, wet, or windy it might be!

Date:

Astronomy

Aug. 25, 2014 Rise Set
Actual Time 5:57 AM MST 7:02 PM MST
Civil Twilight 5:31 AM MST 7:28 PM MST
Nautical Twilight 5:01 AM MST 7:58 PM MST
Astronomical Twilight 4:29 AM MST 8:30 PM MST
Moon 6:03 AM MST 6:58 PM MST
Length of Visible Light 13h 56m
Length of Day
13h 05m
New Moon, 0% of the Moon is Illuminated
Aug 25
New Moon
Sep 2
First Quarter
Sep 8
Full
Sep 15
Last Quarter
Sep 23
New

Hourly Weather History & Observations

Time (MST) Temp. Heat Index Dew Point Humidity Pressure Visibility Wind Dir Wind Speed Gust Speed Precip Events Conditions
12:53 AM 84.9 °F 83.3 °F 54.0 °F 34% 29.77 in 10.0 mi Calm Calm - N/A   Clear
2:53 AM 84.0 °F 83.0 °F 55.9 °F 38% 29.79 in 10.0 mi West 13.8 mph - N/A   Overcast
3:53 AM 82.0 °F 82.1 °F 59.0 °F 45% 29.80 in 10.0 mi West 9.2 mph - N/A   Clear
4:53 AM 81.0 °F 81.3 °F 59.0 °F 47% 29.81 in 10.0 mi NNW 4.6 mph - N/A   Clear
5:53 AM 80.1 °F 81.2 °F 62.1 °F 54% 29.82 in 10.0 mi North 3.5 mph - N/A   Clear
7:53 AM 82.9 °F 84.4 °F 64.0 °F 53% 29.85 in 10.0 mi NE 3.5 mph - N/A   Clear
8:53 AM 84.9 °F 85.9 °F 63.0 °F 48% 29.86 in 10.0 mi Calm Calm - N/A   Clear
9:53 AM 88.0 °F 87.6 °F 60.1 °F 39% 29.86 in 10.0 mi East 5.8 mph - N/A   Clear
10:53 AM 90.0 °F 89.7 °F 60.1 °F 37% 29.85 in 10.0 mi SE 11.5 mph - N/A   Clear
11:53 AM 91.0 °F 91.5 °F 62.1 °F 38% 29.83 in 10.0 mi Calm Calm - N/A   Clear
12:53 PM 93.0 °F 93.8 °F 62.1 °F 36% 29.82 in 10.0 mi SSE 5.8 mph - N/A   Clear
1:53 PM 93.9 °F 94.8 °F 62.1 °F 35% 29.79 in 10.0 mi South 5.8 mph - N/A   Clear
2:53 PM 95.0 °F 95.2 °F 61.0 °F 32% 29.76 in 10.0 mi Calm Calm - N/A   Mostly Cloudy
3:53 PM 95.0 °F 93.4 °F 55.9 °F 27% 29.74 in 10.0 mi SW 8.1 mph - N/A   Clear
4:53 PM 95.0 °F 94.0 °F 57.9 °F 29% 29.74 in 10.0 mi West 4.6 mph - N/A   Clear
5:53 PM 96.1 °F 93.8 °F 54.0 °F 24% 29.74 in 10.0 mi West 5.8 mph - N/A   Clear
8:53 PM 89.1 °F 87.3 °F 55.9 °F 32% 29.79 in 10.0 mi Calm Calm - N/A   Clear
9:53 PM 90.0 °F 88.8 °F 57.9 °F 34% 29.82 in 10.0 mi Calm Calm - N/A   Clear
10:21 PM 84.2 °F 85.0 °F 62.6 °F 48% 29.92 in 10.0 mi SW 16.1 mph 26.5 mph N/A   Partly Cloudy
10:53 PM 81.0 °F 82.5 °F 64.0 °F 56% 29.87 in 10.0 mi SW 11.5 mph - N/A   Clear
11:53 PM 82.0 °F 83.0 °F 62.1 °F 51% 29.87 in 10.0 mi SSE 9.2 mph - N/A   Mostly Cloudy